Location: Los Gatos B&B
(42.6926°N, 77.0646°W)
Time: 02:45:58
(UTC-04:00)

Daily predictions for brighter satellites

Satellite Brightness Start Highest point End
(mag) Time Altitude Azimuth Time Altitude Azimuth Time Altitude Azimuth
Cosmos 1932 4.3 00:06:32 45° SW 00:08:37 88° NW 00:14:54 10° NNE
Cosmos 1470 3.3 00:07:58 10° N 00:11:08 55° NNE 00:11:08 55° NNE
Cosmos 2369 Rocket 3.7 00:07:40 10° NW 00:11:59 23° W 00:13:08 21° WSW
Cosmos 1953 3.6 00:10:13 10° NNW 00:13:33 32° W 00:13:33 32° W
Cosmos 1570 Rocket 4.0 00:11:46 10° NNW 00:17:08 72° WSW 00:17:35 68° SW
Cosmos 2084 3.7 00:13:24 10° NW 00:16:58 65° NW 00:16:58 65° NW
Cosmos 2221 3.1 00:14:36 10° N 00:18:26 47° ENE 00:18:26 47° ENE
Okean 3 Rocket 3.7 00:19:24 69° NE 00:19:24 69° NE 00:23:23 10° N
H-2A R/B 3.3 00:17:15 10° NNE 00:19:58 40° NE 00:19:58 40° NE
Landsat 5 4.3 00:22:06 41° NE 00:22:06 41° NE 00:25:22 10° N
Cosmos 1850 Rocket 3.9 00:22:19 71° SW 00:22:52 82° WNW 00:28:08 10° NNE
Cosmos 1607 3.8 00:23:15 62° S 00:24:10 72° ESE 00:30:23 10° NE
Meteor 1-16 Rocket 4.3 00:20:38 10° N 00:26:11 64° ENE 00:26:56 58° ESE
NOSS 3-2 (C) 4.2 00:32:11 35° ESE 00:32:11 35° ESE 00:37:44 10° NE
Lacrosse 4 Rocket 3.7 00:31:19 14° W 00:33:34 20° NW 00:36:39 10° N
COSMOS 2406 3.4 00:32:43 48° WSW 00:34:09 66° WNW 00:39:53 10° NNE
Terra 4.2 00:35:13 12° W 00:36:07 12° W 00:38:05 10° WNW
SL-8 R/B 4.0 00:33:44 10° WNW 00:38:34 64° NNE 00:39:27 53° ENE
Cosmos 1417 Rocket 4.4 00:33:38 10° N 00:39:47 76° E 00:40:49 62° SE
Cosmos 1340 3.7 00:41:38 44° NNW 00:41:38 44° NNW 00:44:31 10° N
ALOS 2 2.7 00:42:00 71° NNW 00:42:00 71° NNW 00:45:57 10° NNW
COSMOS 2487 3.9 00:45:16 38° N 00:45:16 38° N 00:47:38 10° NNE
Cosmos 1553 Rocket 4.2 00:39:14 10° N 00:45:32 64° E 00:46:50 52° SE
BREEZE-M DEB (TANK) 4.3 00:27:49 10° WSW 00:47:48 71° NNW 00:52:21 10° ENE
Cosmos 468 Rocket 4.3 00:43:37 10° NNW 00:48:50 57° ENE 00:49:25 54° E
Cosmos 1689 Rocket 4.4 00:51:33 26° NNW 00:51:33 26° NNW 00:53:07 10° NNW
Cosmos 1814 Rocket 4.4 00:47:42 10° NNW 00:52:53 55° ENE 00:53:34 51° E
Cosmos 1707 3.9 00:57:52 39° NW 00:57:52 39° NW 01:00:57 10° N
Cosmos 1408 Rocket 3.8 00:57:45 70° N 00:57:45 70° N 01:01:45 10° N
Cosmos 1818 4.3 00:55:27 10° NNW 01:00:47 50° NE 01:02:25 38° E
Cosmos 2082 Rocket 3.6 01:01:19 25° E 01:01:19 25° E 01:05:43 10° NE
Cosmos 1486 Rocket 4.3 01:04:55 52° E 01:04:55 52° E 01:09:46 10° NNE
CZ-4C R/B 2.1 01:07:58 67° ESE 01:07:59 67° ESE 01:13:55 10° NE
Meteor 1-24 Rocket 3.8 01:08:02 63° SW 01:08:58 76° W 01:14:57 10° N
Cosmos 1655 Rocket 4.3 01:09:33 49° SW 01:10:55 59° W 01:17:07 10° N
S3M 3.8 01:04:42 10° N 01:10:59 82° W 01:11:58 65° SSW
Timation 2 Rocket 4.3 01:11:25 53° SE 01:12:30 59° ESE 01:19:11 10° NNE
Cosmos 1833 Rocket 4.1 01:14:49 25° ESE 01:14:54 25° ESE 01:19:23 10° NE
Cosmos 2266 Rocket 4.2 01:14:31 50° SE 01:15:44 59° E 01:22:02 10° NNE
NOSS 3-2 (A) 3.4 01:16:21 63° SSW 01:17:28 87° SE 01:24:10 10° NE
Cosmos 1743 Rocket 3.8 01:22:56 67° NE 01:22:56 67° NE 01:26:53 10° N
CZ-4B R/B 3.8 01:24:16 20° WNW 01:24:16 20° WNW 01:25:55 10° NW
Cosmos 1943 Rocket 4.2 01:21:12 10° WNW 01:23:46 14° W 01:23:46 14° W
Cosmos 1151 Rocket 4.0 01:24:00 10° N 01:27:57 37° ENE 01:27:57 37° ENE
Cosmos 1763 Rocket 3.6 01:28:21 10° NNW 01:33:40 67° ENE 01:34:24 59° ESE
Meteor 2-2 Rocket 4.5 01:28:05 10° N 01:33:45 64° ENE 01:34:53 53° SE
Cosmos 1867 3.7 01:35:26 59° ESE 01:35:27 59° ESE 01:40:51 10° NE
Cosmos 1674 4.2 01:37:39 31° ENE 01:37:39 31° ENE 01:40:15 10° NNE
Meteor 1-21 Rocket 4.2 01:36:29 65° SSE 01:37:13 75° E 01:42:56 10° NNE
Helios 1A Rocket 4.2 01:35:49 10° N 01:39:12 32° WNW 01:39:12 32° WNW
ISS -0.3 01:37:16 10° NW 01:39:32 17° N 01:41:48 10° NE
Cosmos 2151 4.2 01:39:51 33° E 01:39:51 33° E 01:43:27 10° NNE
Cosmos 2344 3.7 01:38:02 48° S 01:40:14 66° ESE 01:48:49 10° NE
CZ-2C R/B 3.2 01:39:23 59° SE 01:40:20 74° ENE 01:46:00 10° N
Cosmos 1500 Rocket 3.7 01:41:22 70° NNE 01:41:22 70° NNE 01:45:13 10° N
Cosmos 1656 4.1 01:40:06 10° NNW 01:45:45 57° ENE 01:47:44 38° ESE
USA 215 3.8 01:41:16 10° ENE 01:47:20 39° SE 01:47:54 39° SE
Cosmos 1328 Rocket 4.1 01:45:07 10° NNW 01:48:44 48° WNW 01:48:44 48° WNW
Cosmos 1354 Rocket 4.0 01:49:06 68° SE 01:49:28 71° ESE 01:54:46 10° NNE
Cosmos 2228 Rocket 4.1 01:47:38 10° NNW 01:51:02 35° WNW 01:51:02 35° WNW
CZ-2C R/B 2.8 01:47:01 10° N 01:52:33 66° WNW 01:53:23 57° WSW
Meteor 2-20 4.5 01:52:46 56° SW 01:53:59 70° W 02:00:10 10° N
Cosmos 1503 Rocket 3.9 01:56:46 71° SSE 01:57:17 79° ESE 02:02:38 10° NNE
Cosmos 2369 3.7 01:53:37 10° NNW 01:59:10 60° WSW 01:59:26 59° WSW
Cosmos 1515 Rocket 4.1 01:54:54 10° NNW 01:58:44 51° WNW 01:58:44 51° WNW
Lacrosse 5 rocket 4.4 01:57:19 10° NNW 02:00:11 17° NNE 02:03:07 10° ENE
In-Cosmos 22 4.3 02:02:13 54° WSW 02:03:01 59° WNW 02:08:37 10° N
Genesis I 3.6 02:05:45 10° NNW 02:09:21 63° NNE 02:09:21 63° NNE
Cosmos 841 Rocket 3.5 02:06:01 10° NNW 02:11:13 64° WSW 02:11:28 63° WSW
Lacrosse 5 2.9 02:11:14 10° NW 02:16:06 45° NE 02:20:56 10° ESE
Cosmos 1908 4.0 02:14:21 10° NNW 02:17:15 43° NW 02:17:15 43° NW
Cosmos 1437 4.5 02:20:43 29° ENE 02:20:43 29° ENE 02:23:12 10° NNE
NOSS 3-2 (C) 4.2 02:19:36 28° WSW 02:22:35 47° NW 02:29:07 10° NNE
Cosmos 1437 Rocket 3.2 02:21:48 10° NNW 02:25:05 54° NW 02:25:05 54° NW
CENTAUR R/B 2.8 02:24:16 44° SSE 02:25:52 55° ESE 02:32:28 10° NE
Cosmos 1980 Rocket 2.6 02:21:53 10° NNW 02:27:27 59° ENE 02:31:05 22° SE
Cosmos 1805 Rocket 3.5 02:31:12 72° SSE 02:31:33 78° E 02:36:01 10° N
Cosmos 405 3.5 02:30:15 10° NNW 02:33:11 57° NNW 02:33:11 57° NNW
BREEZE-M DEB (TANK) 3.9 02:35:34 22° ESE 02:35:34 22° ESE 02:38:59 10° ENE
Cosmos 1441 Rocket 4.1 02:38:35 38° WNW 02:38:35 38° WNW 02:42:08 10° N
Cosmos 1300 2.7 02:34:51 10° N 02:38:42 74° E 02:38:46 73° E
Cosmos 1633 Rocket 3.4 02:40:36 50° SE 02:41:24 60° E 02:45:46 10° NNE
ERS-2 2.4 02:38:29 10° NNE 02:42:10 60° ESE 02:42:12 59° ESE
Cosmos 1707 Rocket 3.3 02:40:25 10° N 02:44:48 80° W 02:45:14 70° SSW
Cosmos 2082 Rocket 2.7 02:43:09 36° WSW 02:44:56 49° WNW 02:50:27 10° NNE
SL-16 R/B 4.5 02:40:15 10° ESE 02:45:19 27° ENE 02:50:25 10° N
NPP 3.9 02:40:16 10° NNE 02:45:37 60° E 02:47:32 38° SSE
Aureole 1 Rocket 3.4 02:43:36 10° NNW 02:48:04 66° WSW 02:49:24 48° SSW
Cosmos 1666 Rocket 3.4 02:47:42 67° S 02:48:16 87° E 02:52:36 10° N
Cosmos 1697 Rocket 2.7 02:43:21 10° NNW 02:48:56 60° WSW 02:50:19 46° SSW
JB-3 4.1 02:46:19 10° N 02:50:21 81° WNW 02:50:38 74° SW
Cosmos 371 Rocket 4.1 02:45:42 10° N 02:50:27 50° ENE 02:54:01 17° SE
CBERS-1 4.4 02:47:42 10° NNE 02:52:44 56° E 02:54:40 35° SSE
ADEOS 4.5 02:47:55 10° NNE 02:52:50 40° E 02:55:18 25° SSE
ASTEX 1 4.1 02:51:58 10° N 02:56:34 38° WNW 02:57:30 34° WSW
CZ-4C R/B 4.0 02:53:07 13° W 02:57:06 26° NW 03:02:15 10° NNE
Cosmos 1833 Rocket 3.2 02:56:30 34° WSW 02:58:29 49° WNW 03:03:58 10° NNE
Cosmos 1470 Rocket 4.4 02:57:01 30° SE 02:58:41 44° E 03:02:55 10° NNE
Cosmos 1745 Rocket 4.0 02:57:59 37° SSW 03:00:43 83° W 03:07:06 10° N
BREEZE-M DEB (TANK) 3.7 02:58:28 10° WNW 03:01:37 73° NNE 03:12:14 10° ESE
ARIANE 5 R/B 4.1 02:57:44 10° NE 03:02:06 27° E 03:05:27 14° SE
Abrixas 3.1 03:03:23 54° NNW 03:03:23 54° NNW 03:06:21 10° ENE
Cosmos 1933 Rocket 4.3 03:01:52 31° SSE 03:03:30 48° E 03:07:44 10° NNE
Meteor 1-27 4.3 03:00:05 10° NNW 03:05:52 64° W 03:08:08 37° SSW
Cosmos 2360 4.2 03:00:10 10° NNW 03:05:55 83° ENE 03:10:43 15° SSE
Cosmos 1455 3.7 03:02:44 10° N 03:06:14 34° ENE 03:08:32 18° SE
Nadezhda 1 Rocket 3.9 03:02:06 10° N 03:08:17 81° W 03:11:30 30° S
AQUA 3.8 03:03:49 10° NNE 03:08:36 80° ESE 03:10:18 40° S
ATLAS 5 CENTAUR R/B 4.0 03:08:54 11° SE 03:11:28 16° ESE 03:14:32 10° ENE
Meteor 1-4 Rocket 3.5 03:08:22 10° N 03:12:00 47° ENE 03:13:57 24° SE
Meteor 2-10 4.3 03:06:58 10° N 03:12:10 69° E 03:15:58 20° SSE
USA 161 2.6 03:14:39 33° ENE 03:14:39 33° ENE 03:16:41 10° N
SL-14 R/B 3.4 03:14:51 50° WSW 03:15:17 53° W 03:19:04 10° N
ISS -0.7 03:14:09 10° NW 03:16:49 22° NNE 03:19:29 10° ENE
H-2A R/B 3.2 03:15:26 31° SSW 03:17:06 36° SSE 03:33:40 10° E
Cosmos 1726 2.5 03:16:09 10° NNW 03:19:41 44° W 03:19:43 44° W
Cosmos 2058 4.0 03:19:43 28° W 03:20:19 30° WNW 03:24:01 10° NNW
IRS-1C 4.1 03:16:48 10° NNE 03:22:11 85° ESE 03:24:53 30° S
Sich 1 3.6 03:23:35 36° WSW 03:24:38 43° WNW 03:28:52 10° N
Cosmos 540 Rocket 4.1 03:20:27 10° NW 03:25:10 37° WSW 03:26:15 33° SW
Okean O Rocket 4.3 03:23:29 10° ENE 03:25:32 13° E 03:27:32 10° ESE
SL-16 R/B 2.6 03:20:39 10° NNW 03:26:19 66° ENE 03:31:57 10° SE
Cosmos 1703 3.3 03:27:21 45° SW 03:28:25 67° W 03:32:22 10° N
USA 215 3.5 03:24:05 10° NE 03:30:32 65° NW 03:35:14 20° WSW
Cosmos 1862 Rocket 3.5 03:33:05 10° N 03:37:36 83° W 03:40:18 23° S
Cosmos 332 Rocket 4.4 03:33:46 10° NW 03:38:10 37° WSW 03:39:28 31° SW
SL-08 R/B 3.9 03:37:04 31° SW 03:38:38 40° W 03:43:15 10° NNW
Cosmos 1626 2.1 03:37:58 32° S 03:39:35 78° E 03:43:21 10° N
Cosmos 2322 Rocket 2.1 03:34:32 10° NNW 03:40:12 90° NNW 03:45:49 10° SSE
Lacrosse 5 rocket 2.2 03:35:55 10° NW 03:40:15 57° NE 03:44:44 10° ESE
EO 1 Del DPAF 3.6 03:38:05 15° SSE 03:41:18 68° ENE 03:45:12 10° N
UNK 4.5 03:37:34 10° SSE 03:42:00 53° ENE 03:46:28 10° N
Resurs 1-4 Rocket 2.9 03:37:42 10° NNE 03:42:50 47° E 03:47:33 12° S
Cosmos 1271 Rocket 2.6 03:41:10 10° NNW 03:44:56 63° W 03:46:34 31° SSW
OAO 3 Rocket 4.0 03:56:42 24° SSW 03:58:17 31° S 04:02:25 10° ESE
Lacrosse 5 2.4 03:54:21 10° WNW 03:58:57 36° SW 04:03:32 10° SSE
Cosmos 2181 Rocket 4.0 03:55:23 10° NNW 04:01:29 69° W 04:07:38 10° S
Cosmos 968 Rocket 4.1 03:58:51 22° WSW 04:01:46 42° WNW 04:06:39 10° N
Cosmos 1869 Rocket 4.2 03:59:35 11° S 04:03:44 55° E 04:08:04 10° NNE
Spot 4 Rocket 4.4 04:02:56 10° N 04:07:56 51° WNW 04:11:27 19° SW
CRYOSAT 2 4.4 04:03:39 10° N 04:08:34 81° E 04:13:25 10° S
Cosmos 1980 Rocket 3.5 04:06:57 10° NW 04:10:57 20° W 04:12:46 17° SW
Cosmos 2360 Rocket 2.8 04:06:40 10° NNW 04:12:15 61° ENE 04:17:49 10° SE
Cosmos 923 Rocket 4.1 04:10:46 10° NNW 04:15:57 58° WSW 04:21:04 10° S
CENTAUR R/B 3.7 04:11:26 11° WSW 04:16:51 35° NW 04:23:16 10° NNE
CZ-4B R/B 4.4 04:12:09 10° NNE 04:17:14 39° E 04:22:22 10° SSE
Cosmos 2322 4.0 04:16:47 10° NNW 04:22:33 73° ENE 04:28:15 10° SSE
CZ-2D R/B 2.1 04:17:32 10° N 04:22:48 79° WNW 04:27:57 11° SSW
Cosmos 2219 4.4 04:17:47 10° S 04:23:05 40° ESE 04:28:24 10° NE
Cosmos 1680 Rocket 3.5 04:21:01 10° NNW 04:26:10 62° WSW 04:31:17 10° S
SL-16 R/B 2.7 04:22:28 10° S 04:28:34 55° W 04:34:44 10° NNW
Cosmos 1703 Rocket 3.7 04:27:57 10° NNW 04:32:13 53° W 04:36:26 10° S
H-2A ROCKET BODY 3.4 04:33:13 12° SSW 04:33:13 12° SSW 04:34:20 10° S
Thor Agena Rocket 3.9 04:30:17 10° SSE 04:35:33 74° ENE 04:40:51 10° N
Cosmos 1346 3.9 04:35:20 15° SW 04:37:28 34° WNW 04:40:20 10° N
Cosmos 2074 Rocket 4.0 04:31:27 10° SSW 04:37:38 73° W 04:43:54 10° N
IRS-1D 4.1 04:34:09 10° N 04:39:13 44° WNW 04:44:11 10° SW
CZ-2D R/B 3.4 04:35:29 10° NNE 04:39:42 87° WNW 04:43:47 10° SSW
Cosmos 2184 Rocket 4.1 04:33:58 10° SSW 04:40:20 73° W 04:46:42 10° N
ARIANE 5 R/B 3.3 04:36:36 10° N 04:41:17 36° WNW 04:45:48 10° SW
Cosmos 1455 4.0 04:39:23 10° NW 04:41:40 15° W 04:43:34 11° WSW
Cosmos 389 Rocket 3.9 04:40:28 10° N 04:44:01 43° ENE 04:47:32 10° SSE
BREEZE-M DEB (TANK) 3.7 04:36:47 10° WNW 04:44:12 63° N 04:47:15 10° E
ATLAS CENTAUR R/B 2.9 04:44:24 10° NNW 04:49:00 45° NE 04:53:13 10° ESE
FALCON 9 R/B 2.3 04:48:00 11° SSW 04:49:08 14° S 04:50:37 10° SE
Cosmos 304 Rocket 4.2 04:45:08 10° NW 04:49:40 41° WSW 04:54:10 10° S
COSMOS 2428 3.4 04:45:14 10° NNW 04:50:52 62° ENE 04:56:29 10° SE
UNKNOWN OBJECT B 3.3 04:47:23 10° N 04:50:59 43° WNW 04:54:38 10° SW
Cosmos 1833 4.4 04:46:59 10° SSW 04:52:43 67° WNW 04:58:28 10° NNE
ISS -3.4 04:50:19 10° WNW 04:53:35 87° SW 04:56:51 10° SE
ATLAS 5 CENTAUR R/B 2.0 04:50:35 10° SW 04:55:27 68° NW 05:00:44 10° NNE
Cosmos 1898 Rocket 3.6 04:53:06 10° SSW 04:58:18 84° ESE 05:03:30 10° NNE
CZ-4B R/B 3.1 04:57:39 10° NNE 05:01:37 78° ESE 05:05:47 10° S
Cosmos 1892 3.4 04:57:49 10° S 05:01:39 58° E 05:05:29 10° NNE
GPS 2-05 Rocket1 4.3 04:59:15 10° SW 05:01:59 23° S 05:04:49 10° ESE
Okean O Rocket 1.8 04:57:55 10° N 05:02:18 61° WNW 05:06:39 10° SSW
GENESIS II 4.4 05:00:16 10° NW 05:04:19 58° WSW 05:08:17 10° SSE
Cosmos 2150 Rocket 4.1 05:02:01 10° SSW 05:07:17 78° WNW 05:12:42 10° NNE
